Santa Rosa, CA

10:19 AM PST on December 15, 2017 (GMT -0800)
Sonoma County

Weather History for KSTS - October, 2013

Change the Weather History Date:

Monday, October 28, 2013

  Actual Average Record
Temperature  
Mean Temperature 53 °F 58 °F  
Max Temperature 67 °F 72 °F 94 °F (2003)
Min Temperature 38 °F 43 °F 34 °F (2004)
Degree Days  
Heating Degree Days 12    
Month to date heating degree days 140  
Since 1 July heating degree days 207  
Cooling Degree Days 0    
Month to date cooling degree days 4  
Year to date cooling degree days 415  
Growing Degree Days 2 (Base 50)    
Moisture  
Dew Point 41 °F    
Average Humidity 66    
Maximum Humidity 92    
Minimum Humidity 40    
Precipitation  
Precipitation 0.00 in 0.10 in 1.16 in (2000)
Month to date precipitation 0.01 1.70  
Year to date precipitation 7.05 24.23  
Since 1 July precipitation 0.53  
Sea Level Pressure  
Sea Level Pressure 29.69 in    
Wind  
Wind Speed 4 mph (SSE)    
Max Wind Speed 14 mph    
Max Gust Speed 18 mph    
Visibility 10 miles    
Events      
T = Trace of Precipitation, MM = Missing Value Source: NWS Daily Summary

Daily Weather History Graph

Daily Weather History Graph

Search for Another Location

Airport or City:

Trip Planner

Search our weather history database for the weather conditions in past years. The results will help you decide how hot, cold, wet, or windy it might be!

Date:

Astronomy

Oct. 28, 2013 Rise Set
Actual Time 7:33 AM PDT 6:15 PM PDT
Civil Twilight 7:06 AM PDT 6:42 PM PDT
Nautical Twilight 6:35 AM PDT 7:13 PM PDT
Astronomical Twilight 6:04 AM PDT 7:44 PM PDT
Moon 1:36 AM PDT (10/28) 2:56 PM PDT (10/28)
Length of Visible Light 11h 36m
Length of Day
10h 41m
Waning Crescent, 33% of the Moon is Illuminated
Oct 28
Waning Crescent
Nov 3
New
Nov 9
First Quarter
Nov 17
Full
Nov 25
Last Quarter

Hourly Weather History & Observations

Time (PDT) Temp. Windchill Dew Point Humidity Pressure Visibility Wind Dir Wind Speed Gust Speed Precip Events Conditions
12:53 AM 53.1 °F - 39.9 °F 61% 29.65 in 10.0 mi NW 9.2 mph - N/A   Clear
1:53 AM 52.0 °F - 39.9 °F 63% 29.66 in 10.0 mi NW 6.9 mph - N/A   Clear
2:53 AM 50.0 °F - 41.0 °F 71% 29.65 in 10.0 mi WNW 10.4 mph - N/A   Clear
3:53 AM 48.0 °F - 39.9 °F 74% 29.64 in 10.0 mi Calm Calm - N/A   Clear
4:53 AM 43.0 °F - 39.0 °F 86% 29.64 in 10.0 mi Calm Calm - N/A   Clear
5:53 AM 41.0 °F 39.0 °F 37.9 °F 89% 29.65 in 10.0 mi ESE 3.5 mph - N/A   Clear
6:53 AM 39.0 °F 34.8 °F 36.0 °F 89% 29.65 in 10.0 mi SSW 5.8 mph - N/A   Clear
7:53 AM 39.0 °F - 37.0 °F 93% 29.67 in 10.0 mi Calm Calm - N/A   Clear
8:53 AM 46.0 °F - 41.0 °F 83% 29.69 in 10.0 mi Calm Calm - N/A   Clear
9:53 AM 52.0 °F - 42.1 °F 69% 29.69 in 10.0 mi South 4.6 mph - N/A   Clear
10:53 AM 57.0 °F - 42.1 °F 57% 29.70 in 10.0 mi Calm Calm - N/A   Clear
11:53 AM 62.1 °F - 41.0 °F 46% 29.69 in 10.0 mi Variable 5.8 mph - N/A   Clear
12:53 PM 63.0 °F - 39.9 °F 43% 29.68 in 10.0 mi SSE 6.9 mph - N/A   Partly Cloudy
1:53 PM 64.9 °F - 39.0 °F 39% 29.65 in 10.0 mi SSE 4.6 mph - N/A   Scattered Clouds
2:53 PM 64.9 °F - 39.9 °F 40% 29.65 in 10.0 mi Variable 3.5 mph - N/A   Scattered Clouds
3:53 PM 64.9 °F - 41.0 °F 42% 29.66 in 10.0 mi South 5.8 mph - N/A   Scattered Clouds
4:53 PM 64.9 °F - 41.0 °F 42% 29.66 in 10.0 mi SSE 9.2 mph - N/A   Scattered Clouds
5:53 PM 61.0 °F - 41.0 °F 48% 29.68 in 10.0 mi South 6.9 mph - N/A   Scattered Clouds
6:53 PM 55.0 °F - 41.0 °F 59% 29.70 in 10.0 mi SE 5.8 mph - N/A   Clear
7:53 PM 51.1 °F - 44.1 °F 77% 29.72 in 10.0 mi ESE 4.6 mph - N/A   Clear
8:53 PM 50.0 °F - 45.0 °F 83% 29.74 in 10.0 mi SE 4.6 mph - N/A   Clear
9:53 PM 50.0 °F - 45.0 °F 83% 29.77 in 10.0 mi Calm Calm - N/A   Clear
10:53 PM 45.0 °F - 43.0 °F 93% 29.79 in 10.0 mi Calm Calm - N/A   Clear
11:53 PM 44.1 °F - 41.0 °F 89% 29.80 in 9.0 mi Calm Calm - N/A   Clear